Theta_e
310 306 304 311 310 309 309 310 310 309 311 310 309 308 308 308 309 307 307 305 308 307 308 310 311 311 310 309 308 308 308 307 307 306 305 303 301 300 305 307 307 307 307 307
306 309 311 312 311 310 311 310 309 308 311 309 308 309 308 310 309 306 307 306 309 309 309 310 310 310 309 309 310 310 310 309 308 307 306 304 302 301 301 306 307 307 307 307
305 311 311 312 309 311 311 310 311 311 310 307 307 304 307 312 308 305 305 307 308 309 309 309 309 310 310 310 310 310 310 309 309 308 307 306 304 303 302 301 302 307 308 307
309 310 312 312 312 309 309 311 311 311 306 302 306 302 307 312 310 307 304 304 307 308 308 308 308 308 309 309 310 310 309 310 309 309 309 307 305 303 303 302 301 302 306 308
309 311 312 313 312 310 312 311 311 310 309 308 310 307 309 310 311 309 308 308 309 308 307 307 307 307 306 307 307 308 309 309 310 310 309 308 307 306 305 304 302 302 302 306
310 309 311 311 310 310 310 308 304 307 305 304 308 306 306 311 312 309 309 309 309 307 304 302 303 303 304 305 305 305 306 306 306 307 308 308 308 307 307 306 304 303 302 302
311 312 311 311 312 311 305 302 301 302 303 306 308 305 309 308 310 308 308 308 307 303 301 301 301 302 304 304 305 305 305 305 305 305 305 306 306 307 306 306 305 304 303 302
305 303 312 311 312 312 310 303 301 300 302 302 305 310 306 306 309 308 307 306 303 303 301 302 302 302 303 304 305 305 304 304 304 304 304 304 304 304 305 306 305 304 303 302
309 309 310 310 311 309 310 309 305 301 303 306 303 304 305 308 309 308 306 303 302 303 302 302 301 302 303 304 304 304 303 303 303 303 303 303 304 304 303 303 304 304 303 302
305 302 308 311 310 310 310 306 306 302 304 306 303 304 308 307 308 305 304 302 302 303 303 299 299 302 303 303 303 303 302 302 302 302 303 303 303 303 302 302 302 303 303 302
303 300 302 307 307 306 309 309 307 305 305 305 304 305 303 305 307 304 303 302 303 304 301 298 300 302 302 303 303 302 302 301 302 302 302 302 302 302 302 301 301 301 301 301
306 300 302 305 307 306 305 305 304 303 301 302 301 304 302 306 305 303 301 302 304 303 301 299 301 301 302 302 302 301 301 301 301 301 301 301 301 301 301 301 301 300 300 300
304 300 298 300 303 304 306 307 305 303 303 305 304 304 302 304 304 302 300 300 301 303 302 300 300 300 301 301 301 300 300 300 300 300 300 300 300 300 299 299 300 300 300 300
302 299 299 298 301 305 306 304 306 306 304 305 304 304 303 305 305 303 299 300 301 302 301 300 299 300 301 300 300 299 299 299 299 299 299 299 299 298 298 298 298 299 299 299
303 303 300 302 301 302 304 304 304 304 307 305 303 304 303 301 302 302 299 300 302 303 303 301 300 299 300 300 299 299 299 299 299 299 299 299 299 299 299 299 298 298 298 298
303 305 306 305 305 304 305 305 304 304 305 304 306 306 305 303 299 301 299 301 303 303 302 301 300 299 299 299 298 298 298 298 298 299 299 299 299 299 298 298 298 298 298 297
306 304 306 310 305 305 310 308 307 305 303 305 306 307 305 304 301 300 299 302 302 302 301 300 299 298 299 299 297 297 297 296 297 297 297 297 297 297 298 298 298 298 298 298
304 305 304 307 306 312 311 305 305 306 305 303 304 303 303 302 302 302 302 302 302 302 301 300 300 300 300 298 295 294 293 293 293 294 294 293 293 294 295 295 295 297 297 297
302 304 307 310 307 307 312 303 303 304 305 303 304 303 303 304 304 305 302 301 302 301 301 301 301 299 297 294 293 292 292 292 291 292 292 292 291 292 292 293 293 294 295 296
301 302 306 305 310 314 311 303 302 302 305 303 302 302 303 303 304 303 301 301 301 302 301 300 300 298 295 293 292 292 291 291 291 291 291 291 291 291 291 292 292 292 292 293
305 303 306 307 307 306 305 302 302 307 306 303 303 303 303 303 301 301 302 301 301 301 300 300 298 296 294 294 294 292 291 291 290 291 291 290 290 290 290 291 291 291 291 292
306 306 305 304 306 307 303 302 304 302 301 302 302 302 303 301 300 301 301 300 300 299 299 299 297 296 294 295 294 292 291 291 290 290 290 290 289 289 290 290 290 290 291 291
306 305 306 305 306 303 302 302 301 300 302 303 302 301 301 301 302 301 300 299 298 297 297 296 295 294 295 296 295 292 291 291 290 290 289 289 289 289 289 290 290 290 290 290
304 302 303 304 304 304 303 300 302 302 302 301 301 301 301 300 300 299 297 296 295 296 295 294 293 293 295 296 294 292 291 291 290 290 290 289 289 289 288 289 290 289 289 290
303 304 306 303 303 302 302 301 301 301 299 299 299 299 300 299 298 298 299 296 294 294 295 295 294 295 295 296 294 293 291 290 290 290 289 289 288 288 288 288 289 289 289 289
302 303 305 304 301 300 301 299 299 298 298 298 298 298 298 298 298 297 295 295 294 296 297 297 296 295 294 293 292 291 291 290 290 289 288 288 288 288 288 288 288 289 289 289
Wind_Speed
5 7 2 2 2 3 5 3 0 2 3 5 4 8 12 10 4 8 3 4 2 4 4 6 5 4 4 5 6 8 10 10 12 13 14 13 11 13 10 8 10 10 9 11
6 3 1 2 3 4 4 2 2 3 2 3 6 13 7 4 3 4 3 5 5 4 3 2 3 4 5 7 9 10 12 13 12 13 13 12 15 12 13 9 11 10 11 11
6 1 2 2 5 4 3 2 1 2 7 1 7 7 4 1 3 6 7 4 4 3 2 2 3 5 7 10 12 14 14 14 13 12 14 14 14 12 13 11 12 11 12 11
5 2 2 3 4 2 1 2 2 2 4 2 5 4 4 3 2 4 6 4 3 2 2 1 3 7 9 11 12 13 13 13 12 12 13 14 15 17 17 17 16 15 13 12
1 2 4 5 2 2 2 2 2 2 4 4 1 3 6 3 3 2 3 2 1 2 4 5 6 8 10 10 12 12 13 13 13 13 14 15 17 18 19 19 18 17 15 14
2 0 3 2 3 3 3 4 6 4 3 3 1 4 5 4 4 3 2 3 2 3 4 5 8 10 12 12 13 14 15 16 14 12 12 15 18 20 20 21 20 19 17 16
4 2 2 1 2 1 5 6 4 5 3 5 2 2 8 4 3 6 8 6 3 2 3 4 7 10 12 15 17 16 18 20 20 15 15 16 18 20 21 22 22 21 20 19
4 5 1 2 2 2 2 5 5 5 2 4 3 5 5 4 1 5 6 6 5 5 2 2 5 9 12 14 16 19 20 20 20 20 19 18 20 22 23 23 22 22 22 21
3 2 2 3 2 2 2 2 2 5 2 3 3 7 6 4 4 4 7 6 7 5 1 3 7 10 13 15 16 18 20 21 20 20 21 20 20 21 22 21 20 21 22 22
3 1 1 1 2 2 2 4 2 3 1 4 5 5 5 6 8 7 7 7 6 2 2 4 6 11 13 14 15 17 19 21 21 22 21 21 21 20 21 22 22 21 21 21
3 3 2 2 4 6 1 2 2 2 4 4 3 6 6 9 9 10 9 7 6 2 1 2 3 11 13 14 16 19 22 22 22 23 23 22 21 21 21 23 22 20 19 20
1 4 3 6 1 3 3 5 5 4 4 2 2 7 2 5 8 7 7 7 3 0 1 2 4 10 15 17 18 21 22 22 22 23 23 22 21 21 22 22 21 19 19 19
4 1 2 6 4 2 4 5 4 3 2 6 5 6 3 1 4 5 8 7 4 2 0 1 7 11 14 16 18 20 21 21 22 22 22 22 22 23 23 23 22 20 21 21
4 3 5 6 4 3 4 5 6 5 3 4 7 7 3 5 8 7 7 7 6 2 1 2 5 11 13 13 16 18 19 19 20 20 20 21 22 23 23 22 21 21 22 23
3 3 3 6 8 5 5 7 8 9 7 7 1 10 5 8 11 11 8 6 5 2 1 3 4 8 13 15 18 19 19 20 19 19 19 20 22 23 25 26 25 23 22 22
1 2 1 5 3 3 6 12 14 16 13 11 17 23 15 12 5 5 7 7 4 3 3 5 5 7 10 13 15 16 18 19 18 17 18 19 22 23 24 26 26 26 26 25
5 3 2 5 5 7 8 7 8 4 5 9 9 11 3 1 6 8 7 7 6 5 5 6 6 6 11 15 16 17 18 18 17 17 18 21 23 24 25 25 26 27 28 28
6 5 3 4 4 2 6 3 6 8 6 13 8 5 4 4 3 3 5 6 7 5 6 5 9 12 11 11 13 15 15 16 17 17 20 22 24 25 25 26 26 27 27 27
3 4 2 3 3 7 8 2 4 4 5 2 9 8 2 2 2 1 5 5 5 4 5 7 11 9 9 9 11 13 15 16 16 19 21 23 23 25 26 27 28 27 28 29
3 1 3 2 3 5 2 1 0 2 5 4 2 2 4 2 1 4 5 5 7 7 7 11 11 8 7 7 9 12 14 15 16 17 19 20 20 21 23 23 25 26 26 28
3 1 9 6 4 7 7 6 1 2 3 3 3 3 1 3 5 3 3 5 5 9 10 10 10 10 8 7 11 14 15 17 18 18 19 20 21 21 22 23 24 26 27 28
7 7 4 4 4 8 2 0 4 3 1 3 4 4 4 6 7 6 7 6 7 8 12 14 10 11 12 11 12 15 16 18 20 21 22 23 24 23 22 22 25 26 25 26
3 5 4 9 6 2 2 3 1 3 1 3 5 8 7 8 7 8 4 5 8 15 18 10 9 12 14 18 15 14 17 19 20 22 24 25 26 26 24 23 25 26 26 24
3 1 3 0 1 3 4 3 1 2 2 5 5 7 7 8 3 3 4 5 7 14 12 12 13 15 20 22 19 17 18 20 19 21 24 26 26 26 26 25 24 24 24 25
4 3 4 6 7 8 2 5 8 5 6 9 9 8 3 3 4 2 6 7 12 15 17 16 16 19 22 25 25 25 23 21 21 23 26 28 26 26 28 28 26 22 24 21
4 5 7 11 7 5 7 8 11 9 6 2 1 1 2 3 4 5 6 13 13 16 20 20 22 22 27 28 30 32 28 23 24 27 26 26 24 27 28 29 32 28 24 19
Wind_Direction
13 66 78 101 42 115 108 104 240 294 22 338 267 287 300 303 334 349 327 247 245 68 67 139 168 191 227 270 287 301 306 309 309 313 324 328 329 337 335 335 341 340 334 340
28 81 210 299 44 79 59 90 320 290 1 5 342 296 282 311 4 340 73 109 113 82 87 137 207 247 278 293 300 306 305 305 307 307 314 312 318 322 320 324 337 335 331 332
115 135 339 51 43 75 37 68 46 260 323 47 320 316 348 359 63 41 39 62 75 148 192 257 260 285 302 309 318 314 314 313 309 305 307 308 309 308 312 316 324 326 328 330
80 325 74 72 73 55 81 42 73 21 32 280 31 277 301 324 102 49 29 48 72 109 185 40 351 341 339 333 326 320 320 319 313 309 306 301 297 297 305 312 315 317 319 316
249 43 56 68 39 15 137 62 64 72 66 36 316 73 269 309 192 156 89 95 74 61 48 20 359 349 348 351 349 343 333 327 322 311 301 296 293 296 304 307 307 309 310 306
78 319 53 100 67 71 134 76 44 52 68 10 230 128 276 206 199 152 159 187 132 75 34 29 40 38 33 27 20 15 4 358 347 331 314 302 298 303 304 310 307 307 305 305
22 4 358 81 113 55 66 52 339 351 10 221 245 40 245 264 257 180 173 182 140 143 102 43 31 28 31 25 18 16 8 360 355 344 336 328 318 309 303 305 305 304 305 302
127 325 40 10 84 165 79 133 154 235 244 274 341 239 256 219 103 144 165 163 189 171 140 71 47 36 26 19 16 6 4 4 4 359 353 344 335 325 315 307 306 302 299 302
125 294 5 49 35 92 141 187 163 103 0 32 232 279 291 194 165 167 178 185 196 186 145 53 39 36 23 14 12 9 0 358 358 354 348 346 342 335 333 326 311 307 306 305
176 41 30 22 67 30 172 158 67 5 211 270 284 276 239 209 198 193 202 200 205 176 82 60 50 27 19 14 8 4 1 357 357 356 353 347 344 343 342 339 330 317 313 308
120 110 295 41 200 182 136 228 88 133 163 202 293 268 212 205 191 189 209 200 193 158 85 88 54 14 12 9 5 1 359 358 358 356 352 350 349 347 341 339 333 329 321 319
174 142 211 210 291 204 198 209 160 134 224 229 158 272 305 216 191 189 205 197 189 55 139 112 7 358 5 3 0 357 355 355 355 352 350 351 350 349 347 345 344 339 331 325
185 358 5 341 356 348 231 206 170 118 83 207 154 261 360 159 202 225 203 206 204 256 65 8 356 355 356 354 352 351 352 352 352 352 351 351 352 350 348 346 343 339 334 327
85 164 195 198 210 134 218 208 192 164 150 200 227 277 226 223 223 239 213 207 206 221 135 350 344 343 340 342 346 349 349 351 350 350 352 356 357 355 354 353 349 344 340 335
121 241 177 266 249 251 243 222 196 206 206 201 225 236 236 226 219 220 211 197 198 169 157 328 304 303 329 342 347 346 347 351 352 355 358 359 359 0 360 360 359 355 349 343
135 257 144 284 326 227 264 249 234 235 235 256 264 278 282 261 207 201 210 188 185 191 283 298 291 304 322 331 339 344 347 350 351 354 355 354 355 357 360 0 358 356 355 353
164 159 58 272 348 320 293 249 206 190 204 210 225 252 257 283 221 219 189 189 182 206 259 275 282 299 331 340 339 340 342 345 348 350 352 352 351 351 352 352 352 354 354 351
150 140 148 264 345 241 240 221 179 201 229 216 260 250 249 255 232 136 158 173 197 227 253 290 322 318 313 316 326 331 341 345 346 350 351 352 348 344 343 345 345 344 346 346
171 143 220 244 227 299 295 149 132 168 288 219 243 273 189 94 70 295 196 186 196 224 262 275 295 280 292 318 329 333 341 346 348 349 349 349 349 344 342 341 341 341 338 338
97 39 172 148 213 238 265 36 359 147 284 349 60 77 144 83 22 257 203 199 231 263 263 278 266 263 286 315 328 330 333 337 339 340 340 342 345 343 339 338 337 337 337 333
150 192 220 230 266 284 265 292 312 117 269 1 17 357 319 220 215 233 182 248 270 277 272 282 254 269 284 306 316 320 325 329 330 326 327 334 340 338 339 334 335 336 335 334
172 164 193 155 212 269 244 88 189 213 36 350 339 296 268 253 273 252 241 250 271 288 306 305 263 277 290 301 308 308 312 327 325 325 324 326 329 328 326 326 328 329 330 329
239 206 186 192 214 214 223 219 80 138 255 308 295 285 272 266 238 246 279 316 323 316 308 302 277 284 289 303 306 295 309 318 314 315 319 321 321 320 319 317 319 322 323 322
257 105 234 204 336 251 322 295 181 356 309 314 289 285 279 262 310 304 319 310 319 313 305 304 302 296 299 308 314 301 305 310 301 301 305 308 310 312 313 311 310 312 312 312
225 355 291 262 281 307 44 336 320 295 287 281 279 273 315 346 351 9 332 298 297 299 301 300 295 297 299 307 309 307 307 308 299 300 299 304 307 308 309 307 304 300 305 300
183 226 268 286 312 280 295 294 296 297 297 327 50 27 22 59 323 291 280 290 295 301 304 303 302 303 306 309 309 309 312 315 305 299 298 300 299 302 301 300 303 303 299 295